Location: Berua Church
(35.0423°N, 88.5987°W)
Time: 00:05:37
(UTC+00:00)

Okean 1-7 - Pass Details

Date: 08 December 2019
Orbit: 591 x 619 km, 82.5° (Epoch: 22 January)

Event Time Altitude Azimuth Distance (km) Brightness Sun altitude
Rises 23:36:29 0° 166° (SSE) 2,834 6.5 -10.9°
Reaches altitude 10° 23:38:48 10° 157° (SSE) 1,940 5.6 -11.4°
Maximum altitude 23:42:43 36° 91° (E) 969 3.6 -12.1°
Drops below altitude 10° 23:46:42 10° 25° (NNE) 1,970 5.2 -12.9°
Enters shadow 23:46:59 - 24° (NNE) 2,076 5.4 -13.0°
